Weather History for KDFW - June, 2014

Change the Weather History Date:

Friday, June 27, 2014

  Actual Average Record
Temperature  
Mean Temperature 83 °F 83 °F  
Max Temperature 92 °F 94 °F 113 °F (1980)
Min Temperature 74 °F 73 °F 59 °F (1974)
Degree Days  
Heating Degree Days 0 0  
Month to date heating degree days 0 0  
Since 1 June heating degree days 0 0  
Since 1 July heating degree days 2603 2284  
Cooling Degree Days 18 18  
Month to date cooling degree days 465 435  
Year to date cooling degree days 941 857  
Since 1 June cooling degree days 465 435  
Growing Degree Days 32 (Base 50)    
Moisture  
Dew Point 70 °F    
Average Humidity 68    
Maximum Humidity 84    
Minimum Humidity 52    
Precipitation  
Precipitation 0.00 in 0.10 in 2.82 in (1962)
Month to date precipitation 3.26 3.49  
Year to date precipitation 10.59 19.74  
Sea Level Pressure  
Sea Level Pressure 29.79 in    
Wind  
Wind Speed 19 mph (South)    
Max Wind Speed 30 mph    
Max Gust Speed 37 mph    
Visibility 10 miles    
Events      
T = Trace of Precipitation, MM = Missing Value Source: NWS Daily Summary

Daily Weather History Graph

Daily Weather History Graph

Search for Another Location

Airport or City:

Trip Planner

Search our weather history database for the weather conditions in past years. The results will help you decide how hot, cold, wet, or windy it might be!

Date:

Astronomy

Jun. 27, 2014 Rise Set
Actual Time 6:21 AM CDT 8:40 PM CDT
Civil Twilight 5:53 AM CDT 9:09 PM CDT
Nautical Twilight 5:18 AM CDT 9:44 PM CDT
Astronomical Twilight 4:39 AM CDT 10:22 PM CDT
Moon 6:48 AM CDT (6/27) 8:52 PM CDT (6/27)
Length of Visible Light 15h 15m
Length of Day
14h 18m
New Moon, 0% of the Moon is Illuminated
Jun 27
New Moon
Jul 5
First Quarter
Jul 12
Full
Jul 18
Last Quarter
Jul 26
New

Hourly Weather History & Observations

Time (CDT) Temp. Heat Index Dew Point Humidity Pressure Visibility Wind Dir Wind Speed Gust Speed Precip Events Conditions
12:53 AM 77.0 °F - 70.0 °F 79% 29.86 in 10.0 mi South 17.3 mph - N/A   Partly Cloudy
1:53 AM 75.9 °F - 69.1 °F 79% 29.85 in 10.0 mi South 16.1 mph - N/A   Partly Cloudy
2:53 AM 75.0 °F - 68.0 °F 79% 29.78 in 10.0 mi South 11.5 mph - N/A   Partly Cloudy
3:53 AM 73.9 °F - 68.0 °F 82% 29.80 in 10.0 mi South 13.8 mph - N/A   Scattered Clouds
4:02 AM 73.9 °F - 68.0 °F 82% 29.89 in 10.0 mi South 12.7 mph - N/A   Mostly Cloudy
4:53 AM 75.0 °F - 68.0 °F 79% 29.80 in 10.0 mi South 15.0 mph - N/A   Overcast
5:53 AM 75.0 °F - 68.0 °F 79% 29.81 in 10.0 mi South 16.1 mph 21.9 mph N/A   Overcast
6:53 AM 75.0 °F - 69.1 °F 82% 29.79 in 10.0 mi South 18.4 mph 23.0 mph N/A   Overcast
7:53 AM 75.9 °F - 69.1 °F 79% 29.81 in 10.0 mi South 13.8 mph - N/A   Overcast
8:53 AM 78.1 °F - 69.1 °F 74% 29.81 in 10.0 mi South 16.1 mph - N/A   Mostly Cloudy
9:38 AM 80.1 °F 82.9 °F 69.1 °F 69% 29.90 in 10.0 mi SSW 17.3 mph 27.6 mph N/A   Mostly Cloudy
9:53 AM 80.1 °F 82.9 °F 69.1 °F 69% 29.82 in 10.0 mi South 18.4 mph 26.5 mph N/A   Mostly Cloudy
10:13 AM 81.0 °F 84.1 °F 69.1 °F 67% 29.90 in 10.0 mi South 18.4 mph 24.2 mph N/A   Mostly Cloudy
10:53 AM 82.9 °F 87.0 °F 70.0 °F 65% 29.80 in 10.0 mi South 18.4 mph - N/A   Overcast
11:53 AM 84.9 °F 89.4 °F 70.0 °F 61% 29.79 in 10.0 mi South 19.6 mph 31.1 mph N/A   Mostly Cloudy
12:53 PM 86.0 °F 90.7 °F 70.0 °F 59% 29.79 in 10.0 mi South 23.0 mph 28.8 mph N/A   Mostly Cloudy
1:53 PM 89.1 °F 94.1 °F 70.0 °F 53% 29.75 in 10.0 mi South 18.4 mph 32.2 mph N/A   Mostly Cloudy
2:53 PM 90.0 °F 95.4 °F 70.0 °F 52% 29.75 in 10.0 mi South 24.2 mph 33.4 mph N/A   Mostly Cloudy
3:53 PM 90.0 °F 95.4 °F 70.0 °F 52% 29.72 in 10.0 mi South 23.0 mph 29.9 mph N/A   Mostly Cloudy
4:53 PM 90.0 °F 96.4 °F 71.1 °F 54% 29.70 in 10.0 mi South 21.9 mph 27.6 mph N/A   Mostly Cloudy
5:53 PM 90.0 °F 95.4 °F 70.0 °F 52% 29.70 in 10.0 mi South 21.9 mph 28.8 mph N/A   Mostly Cloudy
6:53 PM 89.1 °F 94.1 °F 70.0 °F 53% 29.68 in 10.0 mi South 24.2 mph 31.1 mph N/A   Mostly Cloudy
7:53 PM 88.0 °F 92.9 °F 70.0 °F 55% 29.76 in 10.0 mi SSE 24.2 mph 35.7 mph N/A   Mostly Cloudy
8:53 PM 84.9 °F 88.8 °F 69.1 °F 59% 29.77 in 10.0 mi South 24.2 mph 34.5 mph N/A   Scattered Clouds
9:53 PM 82.0 °F 86.7 °F 72.0 °F 71% 29.80 in 10.0 mi SSE 19.6 mph 26.5 mph N/A   Partly Cloudy
10:53 PM 81.0 °F 85.8 °F 73.0 °F 77% 29.81 in 10.0 mi SSE 17.3 mph 26.5 mph N/A   Partly Cloudy
11:53 PM 81.0 °F 85.8 °F 73.0 °F 77% 29.80 in 10.0 mi SSE 21.9 mph 26.5 mph N/A   Partly Cloudy